www.pogodaiklimat.ru
ПОГОДА в Миассе
Время
(UTC), дата
21 28.06
00 29.06
03 29.06
06 29.06
09 29.06
12 29.06
15 29.06
18 29.06
21 29.06
00 30.06
03 30.06
06 30.06
09 30.06
12 30.06
15 30.06
18 30.06
21 30.06
00 1.07
03 1.07
06 1.07
09 1.07
12 1.07
15 1.07
18 1.07
21 1.07
00 2.07
03 2.07
06 2.07
09 2.07
12 2.07
15 2.07
18 2.07
21 2.07
00 3.07
03 3.07
06 3.07
09 3.07
12 3.07
15 3.07
18 3.07
21 3.07
00 4.07
03 4.07
06 4.07
09 4.07
12 4.07
15 4.07
18 4.07
21 4.07
00 5.07
03 5.07
06 5.07
09 5.07
12 5.07
15 5.07
18 5.07
Ветер
(напр.,м/с)
Видим. Явления Облачность Т
(С)
Тd
(С)
f
(%)
Тe
(С)
Тes
(С)
Комфортность P
(гПа)
Po
(гПа)
Тmin
(С)
Tmax
(С)
R
(мм)
R24
(мм)
S
(см)
СЗ 3 10 км 8/8 600 м
[Cb cap]
+8.9 +3.5 69 +7 +7 прохладно 1001.3 961.3
З 3 10 км 3/3 600 м
[Sc]
+7.5 +3.8 77 +5 +5 прохладно 1002.2 962.0
СЗ 4 20 км 4/0
[Ac trans]
+11.4 +3.2 57 +9 +12 по сезону 1002.7 963.1 +7.4
З 5
{11}
50 км 8/8 600 м
[Cb calv]
+14.4 +3.0 46 +13 +14 по сезону 1002.6 963.4
СЗ 4
{10}
50 км 8/8 600 м
[Cb cap]
+16.1 +1.9 38 +16 +18 тепло 1003.3 964.2
СЗ 3
{12}
50 км 5/3 600 м
[Cb calv Ac trans]
+17.0 +3.5 41 +17 +21 тепло 1003.7 964.8
СЗ 1 20 км 8/6 600 м
[Cb calv Ac As]
+14.6 +3.6 48 +15 +15 тепло 1004.3 965.0 +17.4
СЗ 2 10 км 9/9 600 м
[Cb calv]
+12.1 +3.9 57 +11 +11 по сезону 1005.4 965.8
СЗ 1 10 км 9/9 600 м
[Cb calv]
+9.4 +5.4 76 +9 +9 по сезону 1005.4 965.4
штиль 0 <50 м 8/4 600 м
[Sc Ac trans]
+7.5 +4.9 84 +7 +7 очень
холодно
1005.8 965.5
С 3 20 км 8/6 600 м
[Cb calv Ac trans Ci fib]
+12.0 +5.3 64 +11 +12 очень
холодно
1005.9 966.3 +7.3
С 2 50 км 8/5 600 м
[Cb calv Ac trans Ci fib]
+12.8 +7.9 72 +12 +17 очень
холодно
1005.8 966.2
С 2 50 км 8/4 600 м
[Cu Sc Ac trans Ci fib]
+15.1 +5.2 52 +15 +21 холодно 1007.6 968.2
С 3 50 км в посл. час ливневой дождь 8/6 600 м
[Cb cap Ac trans]
+15.3 +4.8 49 +15 +17 очень
холодно
1007.9 968.6
С 1 50 км 5/3 600 м
[Sc diur, vesp Cc]
+13.2 +3.7 52 +14 +14 очень
холодно
1009.5 969.8 +16.4 0.0
СЗ 1 10 км 3/0
[Ac trans Ci fib]
+9.0 +4.6 74 +9 +9 очень
холодно
1011.7 971.4
штиль 0 10 км 3/0
[Ci fib]
+3.6 +1.9 89 +3 +3 очень
холодно
1013.0 971.8
штиль 0 10 км 4/0
[Ac trans Cs]
+2.7 +1.3 90 +2 +2 очень
холодно
1014.9 973.5
СЗ 2 20 км 4/0
[Ci fib]
+10.7 +5.0 68 +10 +14 очень
холодно
1014.6 974.4 +2.5
СЗ 2 50 км 9/9 600 м
[Cb cap]
+14.1 +4.6 53 +14 +15 очень
холодно
1014.5 974.8
С 3 50 км 9/6 600 м
[Cb cap Ac trans]
+16.2 +2.7 40 +16 +19 холодно 1014.5 975.0
СЗ 1 50 км в посл. час ливневой дождь 9/5 600 м
[Cb cap Ac trans]
+14.4 +7.1 62 +15 +17 холодно 1015.7 976.0
СЗ 2 20 км 9/4 600 м
[Cb cap Ac trans]
+14.2 +5.7 57 +14 +14 холодно 1016.2 976.5 +16.8 0.6
штиль 0 10 км 8/0
[Ac trans Cc]
+9.4 +5.5 77 +9 +9 очень
холодно
1017.2 976.7
штиль 0 10 км 4/0
[Cc]
+4.5 +2.8 89 +3 +3 очень
холодно
1018.5 977.3
штиль 0 1000 м дымка 6/6 100 м
[St]
+4.7 +3.6 93 +4 +4 очень
холодно
1018.7 977.5
Ю 1 10 км {туман} 3/1 600 м
[Cu med, cong Ci fib]
+9.7 +7.2 84 +9 +14 очень
холодно
1018.3 977.8 +3.5
Ю 1 20 км {туман} 8/3 600 м
[Sc diur, vesp Ci]
+16.3 +3.5 42 +17 +27 прохладно 1016.9 977.4
В 1 50 км 9/0
[Ac As Ci fib]
+19.5 +1.2 29 +21 +31 комфорт 1015.9 976.8
С 2 50 км 8/0
[Ac trans Cc]
+21.0 +1.6 28 +22 +27 комфорт 1014.8 975.9
С 1 20 км 5/0
[Cc]
+19.7 +0.7 28 +21 +22 комфорт 1015.2 976.2 +21.5
штиль 0 10 км 9/0
[Ac trans Cc]
+12.9 +6.3 64 +13 +13 холодно 1016.6 976.6
штиль 0 10 км 9/6 600 м
[Sc Ac trans]
+11.7 +6.9 72 +11 +11 холодно 1016.1 976.0
штиль 0 10 км 8/0
[Ac und Ci fib]
+11.2 +7.2 76 +11 +11 прохладно 1016.1 975.9
СЗ 1 20 км 10/0
[Ac As]
+14.3 +8.0 66 +15 +16 прохладно 1016.1 976.4 +10.8
Ю 2 50 м 8/1 600 м
[Sc diur, vesp Ci fib]
+22.3 +5.3 33 +23 +33 комфорт 1014.1 975.4
Ю 1 50 м 8/8 600 м
[Cb calv]
+24.3 +6.4 32 +24 +28 комфорт 1013.3 975.0
В 2 50 м 9/8 600 м
[Cb calv Ci fib]
+24.7 +7.0 32 +25 +26 комфорт 1013.1 974.8
З 4-10
{10}
50 м слаб. ливневой дождь 9/8 600 м
[Cb calv Ac cuf]
+19.1 +12.5 66 +20 +20 по сезону 1015.5 976.5 +25.8 0.3
Ю 1
{10}
50 м {ливн. дождь} 5/4 600 м
[Cu med, cong Ac trans]
+13.8 +12.1 89 +14 +14 прохладно 1016.9 977.1
штиль 0 50 м 3/0
[Ci fib]
+10.7 +9.6 93 +10 +10 холодно 1017.6 977.3
штиль 0 <50 м местами туман поземный 4/0
[Ac trans Ci fib]
+9.8 +8.7 93 +9 +9 холодно 1018.1 977.7
СЗ 2 50 м {туман} ясно +18.7 +12.2 66 +20 +25 тепло 1017.2 978.1 +9.6 0.3
СЗ 3 50 км 3/3 600 м
[Cu med, cong Ci fib]
+23.7 +9.4 40 +25 +32 комфорт 1016.0 977.5
С 3 50 км 8/6 600 м
[Cu med, cong Ci fib]
+26.0 +7.7 31 +26 +31 жарко 1015.3 977.1
СЗ 4 50 км 8/6 600 м
[Cu med, cong Ci fib]
+27.2 +5.9 26 +26 +28 жарко 1014.2 976.2
СЗ 2 20 км 8/3 600 м
[Cu med, cong Cc]
+24.6 +6.7 32 +25 +25 комфорт 1014.4 976.1 +27.6
штиль 0 10 км 9/0
[Ac trans Cc]
+16.1 +10.6 70 +16 +16 по сезону 1015.5 976.1
ЮЗ 1 10 км слаб. ливневой дождь 10/8 600 м
[Cb cap Ac und]
+16.7 +10.8 68 +18 +18 тепло 1015.0 975.7
ЮЗ 2 10 км {ливн. дождь} 10/4 600 м
[Cb cap Ac und]
+15.5 +14.0 91 +15 +15 по сезону 1014.4 975.0
ЮЗ 2 10 км слаб. ливневой дождь 10/6 600 м
[Cb cap Ac und]
+17.2 +15.7 91 +18 +18 по сезону 1013.9 974.7 +15.2 2
Ю 1 20 км {ливн. дождь} 10/8 600 м
[Cb cap Ac As]
+19.4 +16.2 82 +22 +23 комфорт 1012.7 973.9
С 1 20 км 8/5 600 м
[Cb cap Cc]
+25.0 +16.1 58 +28 +36 жарко 1010.1 972.1
СЗ 3 10 км в посл. час гроза {ливн. дождь} 10/8 600 м
[Cb cap Ac As]
+20.5 +15.2 72 +24 +24 комфорт 1011.5 972.9
СЗ 2 10 км {гроза, ливн. дождь} 10/5 600 м
[Sc diur, vesp Ac und]
+19.1 +19.6 100 +22 +22 комфорт 1011.1 972.2 +26.4 2
ЮЗ 2 10 км {гроза, ливн. дождь} 9/0
[Ac trans Cs]
+17.5 +16.7 95 +18 +18 по сезону 1010.7 971.7
Местоположение метеостанции Миасс (Челябинская область, Россия): широта 55.00 долгота 60.08 высота над уровнем моря 338 м.
В архиве по умолчанию представлена погода в Миассе за последнюю неделю. Архивные данные за месяц целиком и за предыдущие месяцы, начиная с января 2011 года, Вы можете получить, выбрав интересующий диапазон дат из раскрывающегося списка и нажав кнопку "Найти!".
*Определитесь, кто Вы:
Внимание! Время в таблицах - всемирное. Для получения местного времени необходимо прибавить поправку, которая равна 5 ч.
Смотрите также архив погоды в соседних городах и на ближайших метеорологических станциях:
Партнеры нашего сайта:      
Пояснения к столбцам:
  • Ветер - указаны скорость ветра в м/с - средняя за 10 мин, порывы в срок и между сроками (в фигурных скобках) и направление, откуда дует ветер: С - северный,
  • СВ - северо-восточный, В - восточный, ЮВ - юго-восточный, Ю - южный, ЮЗ - юго-западный, З - западный, СЗ - северо-западный.
  • Видимость - горизонтальная дальность видимости в метрах или километрах. При видимости от 1 до 10 км при отсутствии осадков обычно наблюдается дымка, при ухудшении видимости до 1 км и менее - туман. В сухую погоду видимость может ухудшаться дымом, пылью или мглою.
  • Явления - указаны атмосферные явления, наблюдавшиеся в срок или в последний час перед сроком; фигурными скобками обозначены явления, наблюдавшиеся между сроками (за 1-3 часа до срока); квадратными скобками обозначены град или гололедные отложения с указанием их диаметра в мм.
  • Облачность - указаны через наклонную черту общая и нижняя облачность в баллах и высота нижней границы облаков в метрах; квадратными скобками обозначены формы облаков: Ci - перистые, Cs - перисто-слоистые, Cc - перисто-кучевые, Ac - высококучевые, As - высокослоистые, Sc - слоисто-кучевые, Ns - слоисто-дождевые, Cu - кучевые, Cb - кучево-дождевые. Подробнее классификацию облаков см. в Атласе облаков (PDF).
  • T - Температура воздуха - температура, измеренная на высоте 2 м над землей.
  • Td - Температура точки росы - температура, при понижении до которой содержащийся в воздухе водяной пар достигнет насыщения.
  • f - Относительная влажность воздуха - влажноcть воздуха, измеренная на высоте 2 м над землей.
  • Te - Эффективная температура - температура, которую ощущает одетый по сезону человек в тени. Характеристика душности погоды. При расчете учитывается влияние влажности воздуха и скорости ветра на теплоощущения человека.
  • Tes - Эффективная температура на солнце - температура, которую ощущает человек, с поправкой на солнечный нагрев. Характеристика знойности погоды. Зависит от высоты солнца над горизонтом, облачности и скорости ветра. Ночью, в пасмурную погоду, а также при ветре 12 м/с и более поправка равна нулю.
  • P - Атмосферное давление - приведенное к уровню моря атмосферное давление.
  • Po - Атмосферное давление - измеренное на уровне метеостанции атмосферное давление.
  • Tmin - Минимальная температура - минимум температуры воздуха на высоте 2 м над землей.
  • Tmax - Максимальная температура - максимум температуры воздуха на высоте 2 м над землей.
  • R - Количество осадков - Количество выпавших осадков за период времени, мм. При наведении курсора мыши на число - период времени, за который выпало указанное количество осадков.
  • R24 - Количество осадков - Количество выпавших осадков за 24 часа, мм.
  • S - Снежный покров - Высота снежного покрова, см. При наведении курсора мыши на число - состояние снежного покрова и степень покрытия местности в баллах.